Location: Schommer Observatory
(40.5200°N, 74.4500°W)
Time: 16:00:51
(UTC-04:00)

ISS - Pass Details

Date: 13 October 2017
Orbit: 401 x 408 km, 51.6° (Epoch: 21 October)

Event Time Altitude Azimuth Distance (km) Brightness Sun altitude
Rises 20:18:39 0° 299° (WNW) 2,325 1.2 -23.2°
Reaches altitude 10° 20:20:51 10° 290° (WNW) 1,464 0.1 -23.6°
Enters shadow 20:23:21 31° 244° (WSW) 737 -2.1 -24.1°
